CW3224 Weather Reports


Display with metric or nautical units.
time (UTC)temp
F
wind
direction
speed
MPH
gust
MPH
rain 1hr
in
rain 24hr
in
rain mn
in
humidity
%
barometer
mb
20260504234010 67 229 2.0 5.0 0.00 0.00 0.00 40 1006.6
20260504233011 67 59 2.0 5.0 0.00 0.00 0.00 40 1006.5
20260504232012 67 210 2.0 7.0 0.00 0.00 0.00 38 1006.5
20260504231012 68 229 3.0 9.0 0.00 0.00 0.00 40 1006.4
20260504230011 68 213 2.0 16.0 0.00 0.00 0.00 38 1006.2
20260504225011 68 225 4.0 10.0 0.00 0.00 0.00 37 1006.2
20260504224010 68 208 3.0 9.0 0.00 0.00 0.00 37 1006.0
20260504223011 68 231 4.0 13.0 0.00 0.00 0.00 36 1006.1
20260504222442 69 215 3.0 9.0 0.00 0.00 0.00 38 1006.1
20260504221443 69 19 3.0 9.0 0.00 0.00 0.00 38 1006.1
20260504220005 69 301 3.0 10.0 0.00 0.00 0.00 37 1006.0
20260504215004 69 301 3.0 11.0 0.00 0.00 0.00 38 1006.0
20260504214004 70 301 3.0 8.0 0.00 0.00 0.00 36 1006.0
20260504213005 70 237 3.0 12.0 0.00 0.00 0.00 37 1006.1
20260504212004 70 243 4.0 9.0 0.00 0.00 0.00 35 1006.1
20260504211435 71 276 3.0 10.0 0.00 0.00 0.00 37 1006.2
20260504210445 71 237 3.0 7.0 0.00 0.00 0.00 37 1006.1
20260504204951 71 235 3.0 11.0 0.00 0.00 0.00 37 1006.1
20260504203952 71 251 4.0 13.0 0.00 0.00 0.00 37 1006.1
20260504202952 71 203 3.0 12.0 0.00 0.00 0.00 37 1006.1
20260504202432 71 191 4.0 11.0 0.00 0.00 0.00 35 1006.1
20260504200944 71 214 4.0 10.0 0.00 0.00 0.00 35 1006.0
20260504195943 70 301 4.0 13.0 0.00 0.00 0.00 37 1006.2
20260504194944 70 328 3.0 9.0 0.00 0.00 0.00 37 1006.2
20260504193944 69 301 4.0 14.0 0.00 0.00 0.00 36 1006.3
20260504193422 70 301 4.0 13.0 0.00 0.00 0.00 35 1006.1
20260504191941 70 301 6.0 15.0 0.00 0.00 0.00 34 1006.1
20260504190941 72 192 4.0 15.0 0.00 0.00 0.00 32 1006.5
20260504185940 72 245 5.0 14.0 0.00 0.00 0.00 34 1006.6
20260504184939 72 218 6.0 15.0 0.00 0.00 0.00 31 1006.6
20260504183939 72 183 6.0 15.0 0.00 0.00 0.00 32 1007.1
20260504182938 73 81 3.0 12.0 0.00 0.00 0.00 34 1006.9
20260504181938 73 232 4.0 11.0 0.00 0.00 0.00 33 1006.9
20260504180928 73 276 5.0 11.0 0.00 0.00 0.00 37 1007.1
20260504175928 72 245 5.0 11.0 0.00 0.00 0.00 33 1007.0
20260504174928 72 257 4.0 16.0 0.00 0.00 0.00 35 1007.0
20260504173927 72 181 5.0 17.0 0.00 0.00 0.00 34 1007.1
20260504172926 72 252 4.0 10.0 0.00 0.00 0.00 41 1007.1
20260504171923 71 194 3.0 11.0 0.00 0.00 0.00 33 1007.1
20260504170924 69 252 7.0 23.0 0.00 0.00 0.00 34 1007.4
20260504150914 67 278 3.0 7.0 0.00 0.00 0.00 42 1008.6
20260504140905 61 236 4.0 10.0 0.00 0.00 0.00 50 1009.2
20260504081821 39 260 0.0 0.0 0.00 0.00 0.00 83 1010.2
20260504081300 39 260 0.0 0.0 0.00 0.00 0.00 82 1010.1
20260504050739 33 260 0.0 0.0 0.00 0.00 0.00 84 1010.1
20260504045739 33 260 0.0 0.0 0.00 0.00 0.00 84 1010.1
20260504044728 33 260 0.0 0.0 0.00 0.00 0.00 83 1010.1
20260504043728 33 260 0.0 0.0 0.00 0.00 0.00 83 1010.1
20260504042727 33 260 0.0 0.0 0.00 0.00 0.00 82 1010.1
20260504041727 33 260 0.0 0.0 0.00 0.00 0.00 82 1010.1
20260504041651 33 260 0.0 0.0 0.00 0.00 0.00 81 1009.9
20260504040208 34 260 0.0 0.0 0.00 0.00 0.00 80 1009.8
20260504034722 34 260 0.0 0.0 0.00 0.00 0.00 80 1009.8
20260504033720 34 260 0.0 0.0 0.00 0.00 0.00 79 1009.7
20260504032718 35 260 0.0 0.0 0.00 0.00 0.00 79 1009.7
20260504031719 35 260 0.0 0.0 0.00 0.00 0.00 79 1009.7
20260504030711 35 260 0.0 0.0 0.00 0.00 0.00 78 1009.7
20260504025712 36 260 0.0 0.0 0.00 0.00 0.00 76 1009.7
20260504024709 36 260 0.0 0.0 0.00 0.00 0.00 75 1009.7
20260504023709 37 260 0.0 0.0 0.00 0.00 0.00 75 1009.7
20260504022710 37 260 0.0 0.0 0.00 0.00 0.00 75 1009.6
20260504021707 38 260 0.0 0.0 0.00 0.00 0.00 73 1009.6
20260504021145 38 260 0.0 0.0 0.00 0.00 0.00 72 1009.5
20260504015708 38 260 0.0 0.0 0.00 0.00 0.00 72 1009.4
20260504014707 39 260 0.0 0.0 0.00 0.00 0.00 69 1009.4
20260504013708 40 260 0.0 0.0 0.00 0.00 0.00 69 1009.2
20260504012708 40 260 0.0 0.0 0.00 0.00 0.00 67 1009.2
20260504012639 41 260 0.0 0.0 0.00 0.00 0.00 65 1009.2
20260504010653 42 260 0.0 0.0 0.00 0.00 0.00 63 1009.0
20260504010126 43 260 0.0 0.0 0.00 0.00 0.00 61 1008.7
20260504004655 44 260 0.0 0.0 0.00 0.01 0.00 60 1008.7
20260504003653 44 260 0.0 0.0 0.00 0.01 0.00 59 1008.6
20260504002653 45 260 0.0 0.0 0.00 0.01 0.00 56 1008.3
20260504002136 46 263 0.0 0.0 0.00 0.01 0.00 55 1008.3
20260504000651 47 263 0.0 0.0 0.00 0.01 0.00 53 1008.2
20260503235651 47 263 0.0 0.0 0.00 0.01 0.00 52 1008.2
20260503234651 48 263 0.0 0.0 0.00 0.01 0.00 51 1008.2